Other Surface Observations
Issued by NWS

Home | Current Version | Previous Version | Text Only | Print | Product List | Glossary On
Versions: 1 2 3 4 5 6 7 8 9 10 11 12 13 14 15 16 17 18 19 20 21 22 23 24 25 26 27 28 29 30 31 32 33 34 35 36 37 38 39 40 41 42 43 44 45 46 47 48 49 50
000
SXUS52 KTAE 280018
OSOTAE
OSOTAE
North Florida/South Alabama/Southwest Georgia Weather Roundup
National Weather Service Tallahassee Florida
800 PM EDT THU JUL 27 2017

Note: "fair" indicates few or no clouds below 12,000 feet with no
significant weather and/or obstructions to visibility.

!FLZ017-115-028-034-025-280100
...North Florida...

CITY           SKY/WX    TMP DP  RH WIND       PRES   REMARKS
TALLAHASSEE    PTCLDY    90  71  53 NW6       29.94S HX  96
APALACHICOLA   CLOUDY    79  74  84 SW5       29.97R
PERRY          PTCLDY    87  76  71 CALM      29.95S HX  97
CROSS CITY     CLOUDY    85  74  70 W7        29.99S HX  92
JACKSONVILLE   CLOUDY    80  78  94 SE8       29.94R
$$

!FLZ112-006-005-002-011-280100
...Florida Panhandle...

CITY           SKY/WX    TMP DP  RH WIND       PRES   REMARKS
MARIANNA       CLEAR     89  74  60 SE3       29.93S HX  98
BONIFAY        NOT AVBL
PANAMA CITY NW FAIR      85  74  69 CALM      29.92S HX  92
TYNDALL AFB    PTCLDY    86  78  75 SW6       29.94R HX  98
TYND DRONE APT FAIR      85  78  78 SW5       29.95R HX  97
DE FUNIAK SPR  FAIR      83  75  77 SW3       29.95S HX  90
EGLIN AFB      PTCLDY    85  75  70 SW3       29.95R HX  94
DESTIN         MOCLDY    88  73  61 VRB5      29.94S HX  95
HURLBURT       PTCLDY    83  69  61 VRB3      29.94R
CRESTVIEW      PTCLDY    86  74  67 SW6       29.97R THUNDER HX  94
PENSACOLA      TSTM      77  68  73 SE12G22   29.98R
$$

!ALZ063-066-280100
...South Alabama...

CITY           SKY/WX    TMP DP  RH WIND       PRES   REMARKS
DOTHAN         PTCLDY    89  78  70 N3        29.98R HX 103
OZARK CAIRNS   MOCLDY    89  74  62 CALM      29.94S HX  98
FT RUCKER HELI CLEAR     85  76  76 NW3       29.94R HX  94
RUCKER HELI 3  FAIR      86  74  68 NW5       29.94S HX  94
RUCKER HELI 2  FAIR      85  79  81 CALM      29.93S HX  99
FLORALA APT    PTCLDY    85  74  69 VRB7      29.97R HX  92
ANDALUSIA      TSTM      84  74  71 S8G22     29.94S HX  91
TROY           CLOUDY    81  78  91 E5        29.96R
EUFALA         FAIR      82  71  69 CALM      29.94S
MOBILE         MOCLDY    82  75  79 W5        29.96F
$$

!GAZ120>161-280100
...Southwest and South Central Georgia...

CITY           SKY/WX    TMP DP  RH WIND       PRES   REMARKS
THOMASVILLE    FAIR      88  73  62 CALM      29.96R HX  96
BAINBRIDGE     CLEAR     88  79  74 SE3       29.95S HX 102
MOODY AFB      CLEAR     86  74  68 CALM      29.93R HX  94
VALDOSTA       CLEAR     84  75  74 S3        29.93F HX  92
MOULTRIE       CLEAR     88  70  55 CALM      29.95S HX  92
BLAKELY        CLEAR     88  77  70 CALM      29.94S HX 100
ALBANY         CLEAR     88  74  63 S3        29.96R HX  96
TIFTON         FAIR      86  75  70 CALM      29.94S HX  95
FITZGERALD     FAIR      88  74  63 CALM      29.97R HX  97
CORDELE        FAIR      91  76  61 CALM      29.96R HX 103
AMERICUS       FAIR      82  81  94 CALM      29.97S HX  95
HOMERVILLE     FAIR      86  77  74 CALM      29.95R HX  97
$$

!GMZ750-755-770-775-280100
...Coastal and Buoy Obs...

STATION/POSITION TIME  TEMP    WIND        PRES    VSBY  WAVE
                       AIR SEA DIR/SP/G                  HT/PER
                 (UTC) (F)     (DEG/KT/KT) (MB)    (MI)  (FT/S)
KEATON BEACH     0000   86     260/  6/  7 1013.7F
CEDAR KEY        0000   85     280/ 10/ 13 1014.5F
C TOWER          0000   80                 1015.1S
APALACHICOLA BUO 2350   85 88  270/  4/  6 1014.4R         1/ 4
PANAMA CITY BUOY 2350   85 86  310/  6/  8 1014.2S         1/ 8
MOBILE BUOY      0000   87 88  280/  4/  4 1014.5
ORANGE BCH AL BU 2350   87 88  290/ 10/ 12 1013.9F         1/ 2
$$




USA.gov is the U.S. government's official web portal to all federal, state and local government web resources and services.